Regional Weather Roundup
Issued by NWS

Home | Current Version | Previous Version | Text Only | Print | Product List | Glossary On
Versions: 1 2 3 4 5 6 7 8 9 10 11 12 13 14 15 16 17 18 19 20 21 22 23 24 25 26 27 28 29 30 31 32 33 34 35 36 37 38 39 40 41 42 43 44 45 46 47 48 49 50
000
ASUS43 KLOT 100806
RWRIL

ILLINOIS REGIONAL WEATHER ROUNDUP
NATIONAL WEATHER SERVICE CHICAGO/ROMEOVILLE IL
300 AM CDT THU JUL 10 2014

NOTE: "FAIR" INDICATES FEW OR NO CLOUDS BELOW 12,000 FEET WITH NO
SIGNIFICANT WEATHER AND/OR OBSTRUCTIONS TO VISIBILITY.

* THESE STATIONS ARE NOT UNDER NWS QUALITY CONTROL. THEY ALSO MAY NOT
  REPORT WEATHER SUCH AS PRECIPITATION OR FOG.

ILZ001-002-007-009-015-016-024-100900-
NORTHWEST ILLINOIS

CITY           SKY/WX    TMP DP  RH WIND       PRES   REMARKS
MOLINE         CLEAR     59  56  89 CALM      30.08S
STERLING*      MOCLDY    57  55  94 E5        30.10S
SAVANNA*       MOCLDY    59  56  89 NE5       30.09S
$$

ILZ003-004-008-010-011-017-018-100900-
NORTH CENTRAL ILLINOIS

CITY           SKY/WX    TMP DP  RH WIND       PRES   REMARKS
ROCKFORD       PTCLDY    57  54  89 CALM      30.12S
FREEPORT*      CLEAR     51  49  92 CALM      30.13R
ROCHELLE*      CLEAR     54  52  95 CALM      30.11S
DE KALB*       CLEAR     58  51  79 CALM      30.11S
PERU*          MOCLDY    60  56  88 NE3       30.10S
$$

ILZ005-006-012>014-019>023-100900-
NORTHEAST ILLINOIS

CITY           SKY/WX    TMP DP  RH WIND       PRES   REMARKS
CHICAGO-OHARE  PTCLDY    60  54  80 CALM      30.10R
CHICAGO-MIDWAY CLEAR     67  60  78 CALM      30.10R
AURORA         CLEAR     55  52  89 CALM      30.11R
LANSING*       CLEAR     58  57  94 CALM      30.11R
WAUKEGAN       CLEAR     57  55  93 CALM      30.10R
DUPAGE AIRPORT CLEAR     58  53  84 CALM      30.10S
KANKAKEE*      CLEAR     57  57  98 CALM      30.11S
WHEELING       CLEAR     61  56  83 CALM      30.11S
MORRIS*        CLEAR     58  57  99 CALM      30.10S
ROMEOVILLE*    CLEAR     59  57  94 CALM      30.11R
NORTHERLY ISL    N/A     63  60  90 CALM        N/A
$$

LMZ740>746-100900-
SOUTHERN LAKE MICHIGAN

STATION/POSITION SKY/WX   TEMP    WIND        PRES    VSBY  WAVE
                          AIR SEA DIR/SP/G                  HT/PER
                          (F)     (DEG/KT/KT) (MB)    (MI)  (FT/S)
SOUTHERN BUOY              58 55  230/  2/  4 1019.7R         0
WAUKEGAN HARBOR            62     250/  3/  4 1020.7S
HARRISON CRIB              65     190/  3/  4   N/A
BURNHAM HARBOR             63      CALM  /  1   N/A
CALUMET HARBOR             63     210/  1/  1 1019.9S
MICHIGAN CITY              63     110/  3/  4   N/A
$$

ILZ025>027-034>036-040-047-049-050-058-095>099-100900-
WEST-CENTRAL ILLINOIS

CITY           SKY/WX    TMP DP  RH WIND       PRES   REMARKS
QUINCY         MOCLDY    66  55  67 SE3       30.09S
GALESBURG*     CLEAR     57  56  96 CALM      30.09F FOG
MACOMB*        CLEAR     56  55  98 CALM      30.11S
JACKSONVILLE*  PTCLDY    60  58  95 CALM      30.10S
PITTSFIELD*    MOCLDY    61  58  89 CALM      30.10S
$$

ILZ028>032-037-038-041>044-048-051>054-059>061-100900-
CENTRAL ILLINOIS

CITY           SKY/WX    TMP DP  RH WIND       PRES   REMARKS
PONTIAC        CLEAR     55  55 100 CALM      30.10S
BLOOMINGTON    CLEAR     62  54  75 NE6       30.11S
DECATUR        CLEAR     61  56  83 CALM      30.09S
PEORIA         CLEAR     62  58  86 CALM      30.09S
LACON*         CLEAR     57  54  88 CALM      30.09S
LINCOLN*       CLEAR     59  57  94 CALM      30.07S
SPRINGFIELD    CLEAR     59  56  89 CALM      30.09S
TAYLORVILLE    CLEAR     55  54  94 CALM      30.08S
$$

ILZ033-039-045-046-055>057-062-063-100900-
EAST-CENTRAL ILLINOIS

CITY           SKY/WX    TMP DP  RH WIND       PRES   REMARKS
CHAMPAIGN      CLEAR     59  56  89 N6        30.09S
RANTOUL*       CLEAR     64  56  75 N3        30.11S
MATTOON          N/A     61  57  87 W3        30.08S
PARIS*         CLEAR     57  56  97 CALM      30.09S
$$

ILZ079-100>102-100900-
SOUTHWEST ILLINOIS

CITY           SKY/WX    TMP DP  RH WIND       PRES   REMARKS
ALTON          MOCLDY    61  61 100 CALM      30.08F
BELLEVILLE     CLEAR     62  61  97 CALM      30.07S
CAHOKIA*       PTCLDY    60  58  92 CALM      30.08S
$$

ILZ064>066-069>071-074>076-080>082-084>086-088>090-092>094-100900-
SOUTH-CENTRAL ILLINOIS

CITY           SKY/WX    TMP DP  RH WIND       PRES   REMARKS
CARBONDALE     PTCLDY    67  63  87 N3        30.06F
CAIRO*         PTCLDY    73  65  76 N3        30.04F
MARION         CLOUDY    70  64  83 CALM      30.07S
MT. VERNON     PTCLDY    63  57  82 CALM      30.07F
CENTRALIA*     PTCLDY    60  58  94 CALM      30.07F
SALEM*         PTCLDY    64  61  90 N5        30.08S
METROPOLIS*    MOCLDY    69  63  79 CALM      30.04F
$$

ILZ067-068-072-073-078-083-087-091-100900-
SOUTHEAST ILLINOIS

CITY           SKY/WX    TMP DP  RH WIND       PRES   REMARKS
FLORA*         CLEAR     59  57  94 CALM      30.07F
HARRISBURG*    PTCLDY    67  63  85 CALM      30.07S
ROBINSON*      CLEAR     59  58  97 CALM      30.08F
CARMI*         CLEAR     65  64  97 CALM      30.05F
$$

ABBREVIATIONS USED IN REMARKS
   TC - TEMPERATURE IN CELSIUS
  WCI - WIND CHILL INDEX
   HX - HEAT INDEX
  VSB - VISIBILITY
$$




USA.gov is the U.S. government's official web portal to all federal, state and local government web resources and services.